Location: �chenoz-la-M�line
(47.6009°N, 6.1354°E)
Time: 04:49:13
(UTC+00:00)

Okean O Rocket - Pass Details

Date: 27 January 2021
Orbit: 622 x 645 km, 98.2° (Epoch: 27 February)

Event Time Altitude Azimuth Distance (km) Brightness Sun altitude
Rises 06:27:52 0° 12° (NNE) 2,926 4.9 -7.1°
Reaches altitude 10° 06:30:05 10° 10° (N) 2,011 4.1 -6.7°
Maximum altitude 06:34:26 72° 287° (WNW) 662 1.5 -6.0°
Drops below altitude 10° 06:38:44 10° 203° (SSW) 1,988 4.2 -5.3°
Sets 06:40:55 0° 201° (SSW) 2,889 5.0 -5.0°
